| time (UTC) | temp F | wind direction | speed MPH | gust MPH | rain 1hr in | rain 24hr in | rain mn in | humidity % | barometer mb |
| 20260903071553 | 62 | 134 | 2.0 | 4.0 | 0.00 | 0.03 | 0.03 | 76 | 1020.8 |
| 20260903070108 | 62 | 0 | 0.0 | 4.0 | 0.00 | 0.03 | 0.03 | 73 | 1020.8 |
| 20260903064556 | 63 | 231 | 3.0 | 5.0 | 0.00 | 0.03 | 0.03 | 73 | 1020.8 |
| 20260903063100 | 61 | 236 | 3.0 | 7.0 | 0.00 | 0.03 | 0.03 | 78 | 1020.9 |
| 20260903061603 | 59 | 266 | 0.0 | 8.0 | 0.00 | 0.03 | 0.03 | 80 | 1020.9 |
| 20260903060058 | 58 | 269 | 8.0 | 11.0 | 0.00 | 0.03 | 0.03 | 81 | 1020.7 |
| 20260903054555 | 58 | 197 | 3.0 | 7.0 | 0.00 | 0.03 | 0.03 | 83 | 1020.8 |
| 20260903053050 | 58 | 244 | 0.0 | 3.0 | 0.00 | 0.03 | 0.03 | 88 | 1020.8 |
| 20260903051601 | 55 | 244 | 0.0 | 2.0 | 0.00 | 0.03 | 0.03 | 89 | 1020.8 |
| 20260903050059 | 53 | 244 | 2.0 | 4.0 | 0.00 | 0.03 | 0.03 | 89 | 1020.7 |
| 20260903044551 | 51 | 0 | 2.0 | 6.0 | 0.00 | 0.03 | 0.03 | 89 | 1020.9 |
| 20260903043130 | 52 | 256 | 0.0 | 9.0 | 0.00 | 0.03 | 0.03 | 89 | 1021.0 |
| 20260903041556 | 51 | 261 | 11.0 | 14.0 | 0.00 | 0.03 | 0.03 | 89 | 1021.0 |
| 20260903040115 | 51 | 276 | 2.0 | 8.0 | 0.00 | 0.03 | 0.03 | 89 | 1020.9 |
| 20260903034548 | 51 | 230 | 2.0 | 4.0 | 0.03 | 0.03 | 0.03 | 89 | 1021.0 |
| 20260903033101 | 51 | 230 | 3.0 | 4.0 | 0.03 | 0.03 | 0.03 | 89 | 1021.0 |
| 20260903031554 | 50 | 261 | 0.0 | 8.0 | 0.03 | 0.03 | 0.03 | 89 | 1021.2 |
| 20260903030104 | 49 | 113 | 4.0 | 6.0 | 0.03 | 0.03 | 0.03 | 90 | 1020.9 |
| 20260903024601 | 46 | 286 | 4.0 | 7.0 | 0.00 | 0.00 | 0.00 | 89 | 1021.1 |
| 20260903023054 | 45 | 0 | 0.0 | 1.0 | 0.00 | 0.00 | 0.00 | 88 | 1020.7 |
| 20260903021552 | 45 | 0 | 1.0 | 4.0 | 0.00 | 0.00 | 0.00 | 88 | 1020.7 |
| 20260903020056 | 46 | 260 | 0.0 | 3.0 | 0.00 | 0.00 | 0.00 | 89 | 1020.8 |
| 20260903014557 | 43 | 0 | 0.0 | 3.0 | 0.00 | 0.00 | 0.00 | 88 | 1020.8 |
| 20260903013053 | 43 | 0 | 0.0 | 0.0 | 0.00 | 0.00 | 0.00 | 88 | 1020.9 |
| 20260903011557 | 44 | 259 | 2.0 | 3.0 | 0.00 | 0.00 | 0.00 | 87 | 1021.1 |
| 20260903010104 | 44 | 0 | 0.0 | 1.0 | 0.00 | 0.00 | 0.00 | 87 | 1021.3 |
| 20260903004619 | 44 | 0 | 0.0 | 3.0 | 0.00 | 0.00 | 0.00 | 87 | 1021.4 |
| 20260903003048 | 46 | 0 | 0.0 | 2.0 | 0.00 | 0.00 | 0.00 | 87 | 1021.5 |
| 20260903001555 | 46 | 259 | 2.0 | 3.0 | 0.00 | 0.00 | 0.00 | 87 | 1021.5 |
| 20260903000052 | 45 | 259 | 2.0 | 4.0 | 0.00 | 0.00 | 0.00 | 86 | 1021.4 |
| 20260902234549 | 47 | 0 | 0.0 | 3.0 | 0.00 | 0.00 | 0.00 | 86 | 1021.5 |
| 20260902233102 | 47 | 0 | 0.0 | 2.0 | 0.00 | 0.00 | 0.00 | 86 | 1021.5 |
| 20260902231552 | 47 | 0 | 0.0 | 2.0 | 0.00 | 0.00 | 0.00 | 86 | 1021.7 |
| 20260902230050 | 47 | 0 | 0.0 | 0.0 | 0.00 | 0.00 | 0.00 | 86 | 1021.7 |
| 20260902224554 | 47 | 0 | 0.0 | 1.0 | 0.00 | 0.00 | 0.00 | 86 | 1021.9 |
| 20260902223115 | 47 | 0 | 0.0 | 2.0 | 0.00 | 0.00 | 0.00 | 85 | 1021.8 |
| 20260902221554 | 48 | 0 | 0.0 | 2.0 | 0.00 | 0.00 | 0.00 | 85 | 1021.9 |
| 20260902220057 | 48 | 0 | 0.0 | 2.0 | 0.00 | 0.00 | 0.00 | 85 | 1022.0 |
| 20260902214604 | 48 | 0 | 0.0 | 2.0 | 0.00 | 0.00 | 0.00 | 84 | 1021.9 |
| 20260902213100 | 48 | 259 | 2.0 | 3.0 | 0.00 | 0.00 | 0.00 | 83 | 1021.9 |
| 20260902211556 | 50 | 0 | 0.0 | 0.0 | 0.00 | 0.00 | 0.00 | 83 | 1021.7 |
| 20260902210054 | 50 | 0 | 0.0 | 0.0 | 0.00 | 0.00 | 0.00 | 82 | 1021.8 |
| 20260902204637 | 51 | 0 | 0.0 | 0.0 | 0.00 | 0.00 | 0.00 | 82 | 1021.8 |
| 20260902203100 | 52 | 259 | 0.0 | 2.0 | 0.00 | 0.00 | 0.00 | 82 | 1021.6 |
| 20260902201554 | 53 | 0 | 0.0 | 2.0 | 0.00 | 0.00 | 0.00 | 82 | 1021.7 |
| 20260902200055 | 53 | 259 | 0.0 | 2.0 | 0.00 | 0.00 | 0.00 | 81 | 1021.7 |
| 20260902194549 | 54 | 259 | 1.0 | 3.0 | 0.00 | 0.00 | 0.00 | 82 | 1021.6 |
| 20260902193057 | 54 | 259 | 2.0 | 6.0 | 0.00 | 0.00 | 0.00 | 81 | 1021.8 |
| 20260902191553 | 54 | 254 | 1.0 | 4.0 | 0.00 | 0.00 | 0.00 | 79 | 1021.8 |
| 20260902190055 | 56 | 246 | 1.0 | 3.0 | 0.00 | 0.00 | 0.00 | 78 | 1021.8 |
| 20260902184548 | 57 | 246 | 0.0 | 3.0 | 0.00 | 0.00 | 0.00 | 78 | 1021.8 |
| 20260902183111 | 57 | 244 | 2.0 | 4.0 | 0.00 | 0.00 | 0.00 | 78 | 1021.7 |
| 20260902181602 | 58 | 244 | 1.0 | 4.0 | 0.00 | 0.00 | 0.00 | 75 | 1021.8 |
| 20260902180051 | 59 | 305 | 4.0 | 5.0 | 0.00 | 0.00 | 0.00 | 74 | 1021.6 |
| 20260902174551 | 60 | 303 | 3.0 | 5.0 | 0.00 | 0.00 | 0.00 | 71 | 1021.3 |
| 20260902173104 | 64 | 302 | 2.0 | 4.0 | 0.00 | 0.00 | 0.00 | 66 | 1021.3 |
| 20260902171606 | 65 | 57 | 4.0 | 6.0 | 0.00 | 0.00 | 0.00 | 63 | 1021.0 |
| 20260902170056 | 67 | 24 | 4.0 | 7.0 | 0.00 | 0.00 | 0.00 | 62 | 1021.1 |
| 20260902164602 | 68 | 50 | 4.0 | 9.0 | 0.00 | 0.00 | 0.00 | 56 | 1021.1 |
| 20260902163051 | 68 | 332 | 3.0 | 5.0 | 0.00 | 0.00 | 0.00 | 57 | 1021.1 |
| 20260902161551 | 69 | 58 | 2.0 | 5.0 | 0.00 | 0.00 | 0.00 | 55 | 1020.9 |
| 20260902160056 | 69 | 41 | 3.0 | 6.0 | 0.00 | 0.00 | 0.00 | 54 | 1021.1 |
| 20260902154555 | 69 | 81 | 5.0 | 9.0 | 0.00 | 0.00 | 0.00 | 52 | 1021.0 |
| 20260902153059 | 70 | 88 | 5.0 | 10.0 | 0.00 | 0.00 | 0.00 | 50 | 1021.0 |
| 20260902151549 | 71 | 32 | 4.0 | 10.0 | 0.00 | 0.00 | 0.00 | 48 | 1021.1 |
| 20260902144552 | 71 | 360 | 8.0 | 12.0 | 0.00 | 0.00 | 0.00 | 47 | 1021.1 |
| 20260902143053 | 72 | 46 | 3.0 | 10.0 | 0.00 | 0.00 | 0.00 | 45 | 1021.1 |
| 20260902141549 | 75 | 242 | 5.0 | 15.0 | 0.00 | 0.00 | 0.00 | 38 | 1021.0 |
| 20260902140100 | 73 | 232 | 6.0 | 13.0 | 0.00 | 0.00 | 0.00 | 40 | 1021.0 |
| 20260902134554 | 75 | 238 | 10.0 | 19.0 | 0.00 | 0.00 | 0.00 | 37 | 1021.1 |
| 20260902133105 | 75 | 249 | 8.0 | 15.0 | 0.00 | 0.00 | 0.00 | 36 | 1021.1 |
| 20260902131549 | 74 | 259 | 9.0 | 14.0 | 0.00 | 0.00 | 0.00 | 41 | 1021.1 |
| 20260902124553 | 76 | 294 | 8.0 | 15.0 | 0.00 | 0.00 | 0.00 | 38 | 1021.3 |
| 20260902123053 | 76 | 263 | 7.0 | 14.0 | 0.00 | 0.00 | 0.00 | 41 | 1021.5 |
| 20260902121558 | 75 | 224 | 4.0 | 17.0 | 0.00 | 0.00 | 0.00 | 41 | 1021.6 |
| 20260902120057 | 75 | 302 | 11.0 | 16.0 | 0.00 | 0.00 | 0.00 | 43 | 1021.8 |
| 20260902114554 | 71 | 288 | 8.0 | 14.0 | 0.00 | 0.00 | 0.00 | 49 | 1021.9 |
| 20260902113049 | 71 | 352 | 1.0 | 7.0 | 0.00 | 0.00 | 0.00 | 47 | 1021.9 |
| 20260902111551 | 70 | 0 | 2.0 | 5.0 | 0.00 | 0.00 | 0.00 | 49 | 1022.1 |
| 20260902104605 | 69 | 329 | 1.0 | 5.0 | 0.00 | 0.00 | 0.00 | 49 | 1022.2 |
| 20260902103105 | 70 | 76 | 3.0 | 6.0 | 0.00 | 0.00 | 0.00 | 46 | 1022.4 |
| 20260902101604 | 71 | 44 | 4.0 | 8.0 | 0.00 | 0.00 | 0.00 | 47 | 1022.5 |
| 20260902100053 | 69 | 121 | 1.0 | 5.0 | 0.00 | 0.00 | 0.00 | 48 | 1022.7 |
| 20260902094552 | 69 | 0 | 0.0 | 4.0 | 0.00 | 0.00 | 0.00 | 49 | 1022.8 |
| 20260902093057 | 68 | 249 | 0.0 | 4.0 | 0.00 | 0.00 | 0.00 | 53 | 1023.0 |
| 20260902091552 | 68 | 266 | 1.0 | 7.0 | 0.00 | 0.00 | 0.00 | 51 | 1022.8 |
| 20260902090052 | 67 | 0 | 1.0 | 4.0 | 0.00 | 0.00 | 0.00 | 53 | 1023.0 |
| 20260902084554 | 68 | 331 | 2.0 | 4.0 | 0.00 | 0.00 | 0.00 | 54 | 1023.0 |
| 20260902083055 | 66 | 313 | 3.0 | 7.0 | 0.00 | 0.00 | 0.00 | 61 | 1022.9 |
| 20260902081555 | 65 | 13 | 1.0 | 3.0 | 0.00 | 0.00 | 0.00 | 62 | 1023.1 |
| 20260902080050 | 64 | 316 | 2.0 | 4.0 | 0.00 | 0.00 | 0.00 | 63 | 1023.0 |
| 20260902074558 | 64 | 44 | 2.0 | 4.0 | 0.00 | 0.00 | 0.00 | 62 | 1023.1 |
| 20260902073047 | 64 | 0 | 0.0 | 3.0 | 0.00 | 0.00 | 0.00 | 62 | 1023.0 |